This is the latest recevied weather packets stored in our database for station/object AI5BL. If no packets are shown the sender has not sent any weather packets the latest 10 day(s).
| Time | Temp. | Humidity | Pressure | Rain* | Wind** | Luminosity | Snow |
|---|---|---|---|---|---|---|---|
| 1777993179 | 22.78° C | 68% | 1016.2 hPa | 0 mm | - | 381 W/m² | - |
| 1777992877 | 22.78° C | 74% | 1016.3 hPa | 0 mm | - | 369 W/m² | - |
| 1777991970 | 22.22° C | 75% | 1016.1 hPa | 0 mm | - | 433 W/m² | - |
| 1777991667 | 22.22° C | 72% | 1016 hPa | 0 mm | - | 339 W/m² | - |
| 1777991364 | 22.22° C | 73% | 1015.9 hPa | 0 mm | - | 381 W/m² | - |
| 1777991062 | 22.78° C | 75% | 1016 hPa | 0 mm | - | 392 W/m² | - |
| 1777990759 | 22.22° C | 75% | 1016 hPa | 0 mm | - | 384 W/m² | - |
| 1777990456 | 21.67° C | 76% | 1015.9 hPa | 0 mm | - | 367 W/m² | - |
| 1777990153 | 21.11° C | 75% | 1015.8 hPa | 0 mm | - | 302 W/m² | - |
| 1777989546 | 20.56° C | 76% | 1015.9 hPa | 0 mm | - | 336 W/m² | - |
| 1777989243 | 20° C | 78% | 1015.9 hPa | 0 mm | - | 335 W/m² | - |
| 1777988939 | 19.44° C | 79% | 1016.2 hPa | 0 mm | - | 330 W/m² | - |
| 1777988636 | 18.89° C | 80% | 1016.1 hPa | 0 mm | - | 279 W/m² | - |
| 1777988332 | 18.33° C | 84% | 1016 hPa | 0 mm | - | 228 W/m² | - |
| 1777988030 | 18.33° C | 84% | 1016.1 hPa | 0 mm | - | 181 W/m² | - |
| 1777987725 | 17.78° C | 85% | 1016.1 hPa | 0 mm | - | 158 W/m² | - |
| 1777987422 | 17.78° C | 85% | 1016.4 hPa | 0 mm | - | 173 W/m² | - |
| 1777987119 | 17.22° C | 85% | 1016.2 hPa | 0 mm | - | 169 W/m² | - |
| 1777986817 | 17.22° C | 85% | 1016.1 hPa | 0 mm | - | 157 W/m² | - |
| 1777986514 | 17.22° C | 85% | 1016.2 hPa | 0 mm | - | 156 W/m² | - |
| 1777984696 | 15° C | 90% | 1016 hPa | 0 mm | - | 111 W/m² | - |
| 1777984393 | 15° C | 92% | 1016 hPa | 0 mm | - | 103 W/m² | - |
| 1777984089 | 14.44° C | 92% | 1016 hPa | 0 mm | - | 87 W/m² | - |
| 1777983180 | 13.33° C | 95% | 1015.9 hPa | 0 mm | - | 64 W/m² | - |
| 1777982876 | 12.78° C | 95% | 1016 hPa | 0 mm | - | 54 W/m² | - |
* Rain latest hour (hover to see other rain measurements)
** Current wind speed in m/s (hover to see current wind gust speed)